FLOCK 2'-7

Last updated on Tue Aug 02 2016 17:39:13 GMT+0000 (Coordinated Universal Time)

1 41615U 16040S 16215.48549935 .00002504 00000-0 11955-3 0 9995 2 41615 97.5050 274.4256 0013538 115.5483 244.7153 15.19914253 6228
UTC large
Height (km)
Speed (km/s)
/
Latitude / Longitude
Inclination (degrees)
Orbital Period (minutes)
Azimuth
Elevation
Range (km)
Doppler Factor

Next 0 passes for location: London (51.5072 / 0.1276)

Sorry there are no passes over London.